Weather History for Nellis AFB, NV

Change the Weather History Date:

Tuesday, December 18, 2012

  Actual Average Record
Temperature  
Mean Temperature 48 °F -  
Max Temperature 55 °F 55 °F 66 °F (1998)
Min Temperature 41 °F 33 °F 26 °F (2001)
Degree Days  
Heating Degree Days 17    
Moisture  
Dew Point 39 °F    
Average Humidity 67    
Maximum Humidity 87    
Minimum Humidity 51    
Precipitation  
Precipitation 0.00 in - - ()
Sea Level Pressure  
Sea Level Pressure 29.72 in    
Wind  
Wind Speed 13 mph (SW)    
Max Wind Speed 25 mph    
Max Gust Speed 33 mph    
Visibility 10 miles    
Events Rain    
Averages and records for this station are not official NWS values.
T = Trace of Precipitation, MM = Missing Value Source: NWS Daily Summary

Daily Weather History Graph

Daily Weather History Graph

Search for Another Location

Airport:

Trip Planner

Search our weather history database for the weather conditions in past years. The results will help you decide how hot, cold, wet, or windy it might be!

Date:

Astronomy

Dec. 18, 2012 Rise Set
Actual Time 6:46 AM PST 4:27 PM PST
Civil Twilight 6:17 AM PST 4:56 PM PST
Nautical Twilight 5:45 AM PST 5:28 PM PST
Astronomical Twilight 5:13 AM PST 6:00 PM PST
Moon 10:37 AM PST (12/18) 10:47 PM PST (12/18)
Length of Visible Light 10h 39m
Length of Day
9h 41m
Waxing Crescent, 36% of the Moon is Illuminated
Dec 18
Waxing Crescent
Dec 19
First Quarter
Dec 28
Full
Jan 4
Last Quarter
Jan 11
New

Hourly Weather History & Observations

Time (PST) Temp. Windchill Dew Point Humidity Pressure Visibility Wind Dir Wind Speed Gust Speed Precip Events Conditions
12:58 AM 45.7 °F 41.0 °F 41.4 °F 85% 29.87 in 10.0 mi NE 9.2 mph - N/A   Clear
1:58 AM 46.4 °F 42.4 °F 41.9 °F 84% 29.83 in 10.0 mi NE 8.1 mph - N/A   Clear
2:58 AM 46.2 °F - 42.4 °F 87% 29.84 in 10.0 mi Variable 2.3 mph - N/A   Clear
3:58 AM 48.6 °F - 42.6 °F 80% 29.81 in 10.0 mi North 4.6 mph - N/A   Mostly Cloudy
4:58 AM 50.9 °F - 41.4 °F 70% 29.78 in 10.0 mi South 15.0 mph - N/A   Overcast
5:58 AM 52.7 °F - 41.0 °F 64% 29.77 in 10.0 mi South 13.8 mph - N/A   Mostly Cloudy
6:58 AM 52.5 °F - 42.3 °F 68% 29.76 in 10.0 mi SE 11.5 mph - N/A   Overcast
7:58 AM 51.6 °F - 42.3 °F 70% 29.76 in 10.0 mi SE 10.4 mph - N/A   Overcast
8:58 AM 52.0 °F - 43.0 °F 71% 29.75 in 10.0 mi SE 10.4 mph - N/A   Clear
9:58 AM 55.2 °F - 42.6 °F 63% 29.74 in 10.0 mi South 18.4 mph - N/A   Mostly Cloudy
10:58 AM 55.9 °F - 42.4 °F 61% 29.71 in 10.0 mi South 18.4 mph - N/A   Mostly Cloudy
11:58 AM 55.0 °F - 43.7 °F 66% 29.68 in 10.0 mi South 18.4 mph - N/A   Scattered Clouds
12:11 PM 53.6 °F - 44.6 °F 72% 29.69 in 10.0 mi South 21.9 mph - N/A Rain Light Rain
12:23 PM 53.6 °F - 46.4 °F 77% 29.67 in 10.0 mi South 21.9 mph - N/A   Mostly Cloudy
12:58 PM 54.0 °F - 44.4 °F 70% 29.65 in 10.0 mi South 17.3 mph - 0.00 in   Mostly Cloudy
1:58 PM 53.4 °F - 43.2 °F 68% 29.63 in 10.0 mi South 18.4 mph - N/A   Mostly Cloudy
2:58 PM 51.8 °F - 43.2 °F 72% 29.61 in 10.0 mi South 17.3 mph - N/A   Partly Cloudy
3:58 PM 50.9 °F - 39.7 °F 66% 29.60 in 10.0 mi SSW 20.7 mph - N/A   Partly Cloudy
4:58 PM 49.3 °F - 35.6 °F 59% 29.59 in 10.0 mi SW 20.7 mph - N/A   Clear
5:58 PM 48.2 °F - 34.3 °F 59% 29.62 in 10.0 mi WSW 19.6 mph - N/A   Scattered Clouds
5:59 PM 48.2 °F - 32.0 °F 54% 29.63 in 10.0 mi West 19.6 mph - N/A   Partly Cloudy
6:58 PM 46.2 °F 39.0 °F 34.2 °F 63% 29.67 in 10.0 mi WNW 18.4 mph 27.6 mph N/A   Partly Cloudy
7:58 PM 44.8 °F 37.4 °F 33.8 °F 65% 29.70 in 10.0 mi WNW 17.3 mph 21.9 mph N/A   Mostly Cloudy
8:58 PM 41.9 °F 33.7 °F 32.4 °F 69% 29.72 in 10.0 mi WNW 17.3 mph 33.4 mph N/A   Mostly Cloudy
9:35 PM 44.6 °F 39.2 °F 32.0 °F 61% 29.74 in 10.0 mi WNW 10.4 mph - N/A Rain Light Rain
9:46 PM 44.6 °F 35.7 °F 30.2 °F 57% 29.73 in 10.0 mi WNW 24.2 mph 25.3 mph N/A   Mostly Cloudy
9:58 PM 44.4 °F 35.3 °F 28.9 °F 55% 29.73 in 10.0 mi WNW 25.3 mph 31.1 mph 0.00 in   Mostly Cloudy
10:58 PM 44.6 °F 38.1 °F 27.5 °F 51% 29.77 in 10.0 mi NW 13.8 mph - N/A   Scattered Clouds
11:58 PM 43.7 °F 40.3 °F 27.9 °F 54% 29.82 in 10.0 mi WNW 5.8 mph - N/A   Mostly Cloudy